Youngstown, OH

10:25 PM EDT on August 18, 2017 (GMT -0400)
Youngstown-Warren Regional

Weather History for KYNG - July, 2013

Change the Weather History Date:

Wednesday, July 31, 2013

  Actual Average Record
Temperature  
Mean Temperature 65 °F 70 °F  
Max Temperature 73 °F 81 °F 97 °F (1941)
Min Temperature 56 °F 60 °F 48 °F (1997)
Degree Days  
Heating Degree Days 0 0  
Month to date heating degree days 13 8  
Since 1 June heating degree days 69 82  
Since 1 July heating degree days 13 13  
Cooling Degree Days 0 6  
Month to date cooling degree days 220 185  
Year to date cooling degree days 426 334  
Since 1 June cooling degree days 338 295  
Growing Degree Days 14 (Base 50)    
Moisture  
Dew Point 60 °F    
Average Humidity 83    
Maximum Humidity 100    
Minimum Humidity 66    
Precipitation  
Precipitation 0.00 in 0.13 in 1.41 in (1958)
Month to date precipitation 7.45 4.31  
Year to date precipitation 24.59 22.98  
Snow  
Snow 0.00 in 0.00 in - ()
Month to date snowfall 0.0 0.0  
Since 1 June snowfall T 0.0  
Since 1 July snowfall 0.0 0.0  
Snow Depth 0.00 in    
Sea Level Pressure  
Sea Level Pressure 30.08 in    
Wind  
Wind Speed 5 mph (SE)    
Max Wind Speed 9 mph    
Max Gust Speed 15 mph    
Visibility 9 miles    
Events      
T = Trace of Precipitation, MM = Missing Value Source: NWS Daily Summary

Daily Weather History Graph

Daily Weather History Graph

Search for Another Location

Airport or City:

Trip Planner

Search our weather history database for the weather conditions in past years. The results will help you decide how hot, cold, wet, or windy it might be!

Date:

Astronomy

Jul. 31, 2013 Rise Set
Actual Time 6:17 AM EDT 8:40 PM EDT
Civil Twilight 5:46 AM EDT 9:11 PM EDT
Nautical Twilight 5:07 AM EDT 9:49 PM EDT
Astronomical Twilight 4:24 AM EDT 10:32 PM EDT
Moon 1:11 AM EDT (7/31) 3:55 PM EDT (7/31)
Length of Visible Light 15h 25m
Length of Day
14h 22m
Waning Crescent, 32% of the Moon is Illuminated
Jul 31
Waning Crescent
Aug 6
New
Aug 14
First Quarter
Aug 20
Full
Aug 28
Last Quarter

Hourly Weather History & Observations

Time (EDT) Temp. Dew Point Humidity Pressure Visibility Wind Dir Wind Speed Gust Speed Precip Events Conditions
12:51 AM 59.0 °F 57.0 °F 93% 30.17 in 10.0 mi East 4.6 mph - N/A   Overcast
1:51 AM 57.0 °F 55.9 °F 96% 30.17 in 9.0 mi East 4.6 mph - N/A   Overcast
3:51 AM 57.9 °F 57.0 °F 97% 30.15 in 8.0 mi ESE 5.8 mph - N/A   Overcast
4:51 AM 57.0 °F 55.9 °F 96% 30.14 in 8.0 mi ESE 3.5 mph - N/A   Overcast
5:51 AM 57.0 °F 55.0 °F 93% 30.14 in 9.0 mi Calm Calm - N/A   Overcast
6:51 AM 59.0 °F 57.0 °F 93% 30.14 in 8.0 mi SSE 3.5 mph - N/A   Overcast
7:51 AM 62.1 °F 59.0 °F 90% 30.14 in 10.0 mi SE 3.5 mph - N/A   Overcast
8:51 AM 64.9 °F 59.0 °F 81% 30.14 in 10.0 mi SSE 4.6 mph - N/A   Overcast
9:51 AM 68.0 °F 59.0 °F 73% 30.14 in 10.0 mi SE 3.5 mph - N/A   Overcast
10:26 AM 71.6 °F 59.0 °F 64% 30.14 in 10.0 mi SE 5.8 mph - N/A   Overcast
10:51 AM 71.1 °F 59.0 °F 66% 30.12 in 10.0 mi South 5.8 mph - N/A   Overcast
11:51 AM 72.0 °F 60.1 °F 66% 30.11 in 10.0 mi SSE 3.5 mph - N/A   Overcast
12:51 PM 72.0 °F 61.0 °F 68% 30.09 in 10.0 mi SSW 4.6 mph - N/A   Overcast
1:51 PM 71.1 °F 62.1 °F 73% 30.09 in 10.0 mi SSW 4.6 mph - N/A   Mostly Cloudy
2:51 PM 72.0 °F 61.0 °F 68% 30.07 in 10.0 mi South 4.6 mph - N/A   Mostly Cloudy
3:51 PM 70.0 °F 61.0 °F 73% 30.06 in 10.0 mi South 5.8 mph - N/A   Overcast
4:51 PM 70.0 °F 62.1 °F 76% 30.05 in 10.0 mi Calm Calm - N/A   Overcast
5:51 PM 71.1 °F 62.1 °F 73% 30.03 in 10.0 mi SE 4.6 mph - N/A   Overcast
6:51 PM 71.1 °F 62.1 °F 73% 30.01 in 10.0 mi ESE 5.8 mph - N/A   Mostly Cloudy
7:51 PM 69.1 °F 62.1 °F 78% 29.99 in 10.0 mi SE 5.8 mph - N/A   Mostly Cloudy
8:51 PM 66.9 °F 63.0 °F 87% 29.98 in 10.0 mi ESE 4.6 mph - N/A   Mostly Cloudy
9:51 PM 66.0 °F 63.0 °F 90% 29.97 in 8.0 mi ESE 6.9 mph - N/A   Mostly Cloudy
10:51 PM 66.0 °F 63.0 °F 90% 29.96 in 7.0 mi SE 6.9 mph - N/A   Partly Cloudy
11:51 PM 66.0 °F 63.0 °F 90% 29.94 in 7.0 mi SSE 6.9 mph - N/A   Mostly Cloudy